[[{"header":{"parameterUnit":"m.s-1","parameterCategory":2,"la1":30.2991,"la2":30.254,"lo1":-89.0895,"lo2":-89.0444,"dy":0.0017,"dx":0.0017,"nx":28,"ny":28,"refTime":"2025-04-20T21:00:00:Z","depth":"0","parameterNumber":2,"parameterNumberName":"U-component_of_CURRENTS"},"data":[0,0,0,0,0,0,0,0,0,0,0,0,0,0,0,0,0,0,0,0,0,0,0,0,0,0,0,0,0,0,0,0,0,0,0,0,0,0,0,0,0,0,0,0,0,0,0,0,0,0,0,0,0,0,0,0,0,0,0.2985,0.2985,0,0.297,0.2969,0.2969,0.2895,0.2893,0.2892,0.2891,0.2846,0.2846,0.2846,0,0,0,0,0,0,0,0,0,0,0,0,0,0.292,0.2922,0.2985,0.2985,0.2985,0.297,0.2969,0.2969,0.2895,0.2893,0.2892,0.289,0.2846,0.2846,0.2846,0,0,0,0,0,0,0,0,0,0,0,0,0,0.2928,0.2922,0.2985,0.2949,0.2946,0.297,0.2969,0.2968,0.2895,0.2893,0.2891,0.2889,0.2846,0.2846,0.2846,0.2888,0,0,0.2847,0.2847,0,0,0,0,0,0,0,0,0.2927,0.2929,0.2954,0.2952,0.2949,0.2936,0.293,0.2942,0.2896,0.2911,0.2891,0.2888,0.2878,0.2875,0.2871,0.2886,0.2884,0.2847,0.2847,0.2847,0.2847,0,0,0,0,0,0,0,0.2927,0.293,0.2975,0.2955,0.2952,0.2925,0.2923,0.2932,0.2902,0.2909,0.2905,0.291,0.2875,0.2871,0.287,0.2884,0.2847,0.2847,0.2847,0.2847,0.2946,0.2949,0,0,0,0,0,0,0.2941,0.293,0.2975,0.2975,0.2937,0.2928,0.2926,0.2939,0.2902,0.2896,0.2912,0.2907,0.2872,0.287,0.2868,0.2939,0.2847,0.2847,0.2847,0.2944,0.2947,0.295,0,0,0,0,0,0,0.294,0.2946,0.2976,0.2954,0.2956,0.2932,0.2946,0.2939,0.2938,0.2906,0.2898,0.2918,0.287,0.2868,0.2894,0.2935,0.2847,0.2847,0.2941,0.2945,0.2948,0.3066,0,0,0,0,0,0,0.2938,0.2946,0.2963,0.2956,0.2959,0.3017,0.2948,0.2941,0.2946,0.2939,0.2909,0.2902,0.2869,0.2894,0.2894,0.2934,0.2847,0.2937,0.2942,0.2947,0.3059,0.3074,0.3086,0,0,0,0,0,0.2936,0.2978,0.2965,0.297,0.2983,0.302,0.302,0.2991,0.2949,0.2975,0.2947,0.2903,0.2924,0.2897,0.2896,0.2937,0.2935,0.2941,0.2947,0.3053,0.3071,0.3086,0,0,0,0,0,0,0.2965,0.2975,0.2959,0.3002,0.3021,0.3009,0.3028,0.3006,0.3003,0.2991,0.294,0.2935,0.2976,0.2947,0.2918,0.2981,0.2921,0.2927,0.3002,0.3019,0.3032,0.3028,0.2847,0,0,0,0,0,0.2981,0.3007,0.3018,0.3053,0.3064,0.3047,0.3056,0.3044,0.3039,0.3034,0.3013,0.2995,0.3003,0.3001,0.3007,0.3043,0.3026,0.3068,0.3082,0.3093,0.3091,0.3121,0.3137,0.2968,0.2968,0.2968,0,0,0.3004,0.301,0.3027,0.306,0.3061,0.3091,0.3046,0.3079,0.3095,0.3034,0.3053,0.3051,0.3027,0.3068,0.3082,0.3044,0.3137,0.3101,0.3111,0.3102,0.3128,0.3145,0.3159,0.2972,0.2972,0.2971,0,0,0.305,0.3068,0.3096,0.3119,0.314,0.314,0.3156,0.3163,0.316,0.3194,0.3153,0.3177,0.3179,0.3175,0.3168,0.3263,0.3216,0.3266,0.332,0.335,0.3364,0.3376,0.339,0.3402,0.3262,0.3262,0.3262,0,0.3068,0.3102,0.3115,0.3145,0.3165,0.3165,0.3199,0.3212,0.3227,0.3236,0.3216,0.3243,0.3229,0.3267,0.3296,0.3293,0.3294,0.3258,0.3367,0.3378,0.3388,0.34,0.3411,0.3268,0.3268,0.3267,0.3266,0,0.3125,0.3155,0.3181,0.3209,0.3242,0.3284,0.3304,0.3337,0.3332,0.3334,0.3386,0.3383,0.339,0.3403,0.3373,0.3442,0.3417,0.339,0.3323,0.3412,0.3419,0.3429,0.3277,0.3275,0.3273,0.3272,0,0,0.3135,0.3205,0.3205,0.322,0.3278,0.3302,0.3361,0.3405,0.3422,0.3462,0.349,0.3528,0.3525,0.3518,0.3504,0.3528,0.3608,0.3491,0.349,0.35,0.3671,0.3557,0.3556,0.3602,0.3604,0.3606,0.3653,0,0.316,0.3223,0.3253,0.3306,0.3339,0.3374,0.3416,0.3461,0.3491,0.3529,0.3554,0.3581,0.3568,0.3576,0.361,0.3604,0.3638,0.3597,0.3587,0.3586,0.3469,0.3564,0.3404,0.3423,0.3662,0.3664,0.3665,0,0.3182,0.322,0.3282,0.3336,0.3351,0.3383,0.3444,0.3487,0.3556,0.3577,0.3634,0.3649,0.3707,0.3674,0.3733,0.3709,0.3705,0.3699,0.37,0.3552,0.3489,0.3371,0.3432,0.335,0.3679,0.3678,0.3677,0,0.3155,0.3226,0.327,0.3295,0.3369,0.3392,0.3427,0.3497,0.3531,0.3611,0.3646,0.3716,0.3739,0.3776,0.3781,0.3765,0.3829,0.3798,0.3697,0.3688,0.3525,0.3498,0.3494,0.3846,0.3846,0.3845,0.3845,0,0.3161,0.3183,0.3255,0.3277,0.3308,0.337,0.3407,0.3457,0.3535,0.3573,0.3661,0.3701,0.3766,0.3811,0.3816,0.3788,0.3863,0.3721,0.3699,0.3562,0.3539,0.3434,0.3409,0.3847,0.3847,0.3846,0.3846,0,0.3111,0.3172,0.3207,0.3279,0.3296,0.3312,0.3379,0.3411,0.3496,0.3557,0.3588,0.3698,0.3752,0.381,0.3851,0.3802,0.3686,0.377,0.3596,0.3552,0.3339,0.3326,0.3177,0.3079,0.3661,0.3658,0.3656,0,0.3085,0.3108,0.3179,0.3193,0.3216,0.3253,0.328,0.3372,0.3417,0.3539,0.3568,0.3657,0.3689,0.3724,0.3674,0.3668,0.3602,0.3491,0.342,0.3316,0.3288,0.3189,0.3112,0.3268,0.3263,0.3259,0.3255,0,0.3015,0.3045,0.3076,0.3112,0.3137,0.3163,0.3216,0.3242,0.3351,0.3408,0.3464,0.3501,0.3545,0.345,0.3442,0.3421,0.3307,0.34,0.3349,0.3025,0.2862,0.2759,0.3251,0.3218,0.3222,0.3225,0.3227,0.3228,0.2931,0.2934,0.2978,0.3002,0.3029,0.3035,0.3004,0.3073,0.3102,0.3125,0.3275,0.3242,0.3254,0.3208,0.3175,0.2998,0.3026,0.2885,0.2896,0.282,0.2658,0.3054,0.2954,0.2956,0.2957,0.2959,0.2961,0,0.2805,0.2835,0.2859,0.2866,0.2838,0.2904,0.2925,0.2866,0.2824,0.2894,0.2912,0.287,0.2793,0.2797,0.2666,0.2522,0.2425,0.2455,0.231,0.2273,0.2677,0.2592,0.2339,0.2339,0.2339,0.2339,0.2339,0.2339,0.2738,0.2714,0.2744,0.2663,0.2664,0.2569,0.2542,0.2488,0.2491,0.2391,0.2338,0.2389,0.2496,0.2466,0.231,0.224,0.2079,0.1944,0.1981,0.2306,0.2348,0.2388,0.2302,0.1992,0.1992,0.146,0.1456,0.1453]},{"header":{"parameterUnit":"m.s-1","parameterCategory":2,"la1":30.2991,"la2":30.254,"lo1":-89.0895,"lo2":-89.0444,"dy":0.0017,"dx":0.0017,"nx":28,"ny":28,"refTime":"2025-04-20T21:00:00:Z","depth":"0","parameterNumber":3,"parameterNumberName":"V-component_of_CURRENTS"},"data":[0,0,0,0,0,0,0,0,0,0,0,0,0,0,0,0,0,0,0,0,0,0,0,0,0,0,0,0,0,0,0,0,0,0,0,0,0,0,0,0,0,0,0,0,0,0,0,0,0,0,0,0,0,0,0,0,0,0,0.0109,0.0109,0,0.008,0.008,0.008,0.007,0.007,0.007,0.007,0.0036,0.0035,0.0034,0,0,0,0,0,0,0,0,0,0,0,0,0,0.0103,0.0104,0.0109,0.0109,0.0108,0.008,0.008,0.008,0.007,0.007,0.007,0.007,0.0036,0.0035,0.0034,0,0,0,0,0,0,0,0,0,0,0,0,0,0.0094,0.0104,0.0109,0.0099,0.0098,0.008,0.008,0.0079,0.007,0.007,0.007,0.007,0.0036,0.0035,0.0034,0.0023,0,0,0.0029,0.0029,0,0,0,0,0,0,0,0,0.0094,0.0094,0.0101,0.01,0.0099,0.0078,0.0065,0.006,0.007,0.0081,0.007,0.007,0.0049,0.0047,0.0042,0.0021,0.002,0.0029,0.0028,0.0028,0.0027,0,0,0,0,0,0,0,0.0095,0.0095,0.0098,0.0101,0.0099,0.0078,0.0078,0.0064,0.0065,0.008,0.0079,0.0075,0.0048,0.0043,0.0041,0.002,0.0029,0.0028,0.0027,0.0026,-0.0023,-0.0023,0,0,0,0,0,0,0.01,0.0096,0.0099,0.0097,0.0096,0.0079,0.0078,0.0085,0.0066,0.0062,0.0075,0.0075,0.0046,0.0043,0.004,0.0019,0.0028,0.0026,0.0025,-0.0022,-0.0023,-0.0023,0,0,0,0,0,0,0.01,0.0101,0.01,0.0095,0.0093,0.0079,0.0087,0.0084,0.008,0.0062,0.0059,0.0073,0.0046,0.0042,0.0027,0.0018,0.0026,0.0024,-0.0022,-0.0023,-0.0023,-0.0019,0,0,0,0,0,0,0.0101,0.0102,0.0109,0.0096,0.0094,0.0095,0.0087,0.0084,0.0077,0.0076,0.0059,0.0056,0.0045,0.0029,0.0025,0.0016,0.0023,-0.0021,-0.0022,-0.0023,-0.0019,-0.0019,-0.002,0,0,0,0,0,0.0101,0.0115,0.011,0.011,0.0105,0.0095,0.0092,0.0082,0.0077,0.0078,0.0062,0.0056,0.0021,0.0028,0.0024,0.0013,-0.0021,-0.0022,-0.0023,-0.0018,-0.0019,-0.002,0,0,0,0,0,0,0.0115,0.0115,0.0109,0.0123,0.011,0.0093,0.0094,0.0083,0.0071,0.0071,0.0052,0.0048,0.003,0.0022,0.0029,-0.0004,-0.0002,-0.0004,0.0003,0.0002,0.0001,0.0022,0.0022,0,0,0,0,0,0.0121,0.0133,0.0122,0.0129,0.0127,0.0109,0.0103,0.0095,0.0081,0.0076,0.0061,0.0043,0.0022,0.0013,-0.0003,-0.0018,-0.0002,-0.0029,-0.003,-0.003,-0.0017,0.0003,0.0006,-0.0027,-0.0027,-0.0027,0,0,0.0125,0.0128,0.0133,0.0133,0.0124,0.012,0.0107,0.0101,0.0093,0.0074,0.0062,0.0041,0.0017,-0.0002,-0.0011,-0.001,-0.0014,-0.0032,-0.0032,-0.0018,0.0003,0.0006,0.0009,-0.0027,-0.0027,-0.0027,0,0,0.0137,0.0145,0.0157,0.015,0.0141,0.013,0.0129,0.0112,0.0103,0.0086,0.0065,0.0044,0.0017,-0.0004,-0.0018,-0.0032,-0.0019,-0.0043,-0.003,-0.0011,-0.0008,-0.0005,0.002,0.0025,-0.0043,-0.0043,-0.0043,0,0.0144,0.0157,0.0155,0.016,0.0157,0.0136,0.0139,0.0123,0.01,0.0099,0.0086,0.0052,0.0017,0.0001,-0.0019,-0.0033,-0.0013,-0.0025,-0.001,-0.0007,-0.0003,0.0021,0.0027,-0.0043,-0.0043,-0.0043,-0.0043,0,0.016,0.0168,0.0174,0.0176,0.0171,0.0172,0.0152,0.0146,0.013,0.0116,0.0103,0.0065,0.0053,0.0022,-0.0012,-0.0013,-0.0003,-0.0012,-0.0003,0.0001,0.0025,0.0031,-0.0043,-0.0043,-0.0043,-0.0043,0,0,0.0193,0.0188,0.0192,0.0197,0.0184,0.0186,0.0174,0.0167,0.0183,0.0146,0.0176,0.0094,0.0088,0.0071,0.0035,0.0028,0.004,0.0012,0.0013,0.0046,0.0095,0.006,0.0063,0.004,0.0041,0.0042,0.0103,0,0.0209,0.0223,0.0215,0.0225,0.0231,0.0216,0.0215,0.0204,0.0199,0.0224,0.0184,0.0192,0.0104,0.0111,0.0084,0.0065,0.0057,0.0025,0.0079,0.0081,0.0057,0.0069,0.007,0.0121,0.0109,0.011,0.0111,0,0.0231,0.0241,0.025,0.0264,0.0268,0.027,0.0292,0.0292,0.0305,0.031,0.0307,0.0294,0.0271,0.0213,0.0176,0.0165,0.0125,0.0102,0.0104,0.0078,0.0057,0.0115,0.0133,0.0024,0.0121,0.012,0.0119,0,0.0261,0.0272,0.0284,0.0284,0.0289,0.0299,0.031,0.0318,0.0354,0.0384,0.0439,0.0398,0.0422,0.0361,0.0274,0.024,0.0263,0.0218,0.0151,0.0149,0.0163,0.016,0.0092,0.0203,0.0203,0.0203,0.0202,0,0.0286,0.0302,0.0301,0.031,0.0349,0.0339,0.0392,0.0402,0.0462,0.0545,0.0497,0.0575,0.0462,0.0453,0.0348,0.0277,0.032,0.0166,0.0164,0.0162,0.0158,0.0074,0.0001,0.0205,0.0204,0.0204,0.0204,0,0.0314,0.0307,0.0331,0.0347,0.0359,0.039,0.0459,0.0518,0.0556,0.068,0.0708,0.073,0.0717,0.0601,0.0528,0.0391,0.025,0.0278,0.0279,0.0274,0.0072,0.0,-0.0066,-0.0114,0.0216,0.0216,0.0215,0,0.033,0.0339,0.0367,0.04,0.041,0.0459,0.0514,0.056,0.0648,0.0788,0.088,0.0903,0.0949,0.0817,0.0591,0.0424,0.0288,0.0282,0.0188,0.0069,-0.0011,-0.0073,-0.0113,0.0218,0.0218,0.0218,0.0217,0,0.0368,0.0371,0.0398,0.0464,0.0519,0.0592,0.0682,0.0766,0.0863,0.0981,0.1151,0.1204,0.1079,0.0908,0.0636,0.05,0.0188,0.0267,0.0157,-0.0009,-0.0088,-0.0137,0.0171,0.0215,0.0215,0.0215,0.0215,0.0215,0.0408,0.0436,0.0476,0.0544,0.0619,0.0736,0.0816,0.0945,0.1105,0.1304,0.1344,0.1443,0.1166,0.0805,0.0603,0.0193,0.0179,0.0049,-0.0021,-0.0066,-0.0148,0.0143,0.0164,0.0164,0.0164,0.0164,0.0164,0,0.0462,0.0498,0.0564,0.0652,0.0757,0.078,0.0946,0.105,0.1253,0.1424,0.1566,0.1476,0.1142,0.0774,0.0222,-0.0053,-0.0152,-0.0196,-0.0276,-0.0299,-0.0013,-0.0051,-0.009,-0.009,-0.009,-0.009,-0.009,-0.009,0.0496,0.0564,0.0597,0.0762,0.0836,0.0983,0.1081,0.1242,0.1381,0.1573,0.1624,0.1653,0.1354,0.0432,-0.017,-0.0297,-0.0485,-0.0539,-0.062,-0.043,-0.0412,-0.0396,-0.0448,-0.057,-0.0571,-0.0867,-0.087,-0.0873]}],[{"header":{"parameterUnit":"m.s-1","parameterCategory":2,"la1":30.2991,"la2":30.254,"lo1":-89.0895,"lo2":-89.0444,"dy":0.0017,"dx":0.0017,"nx":28,"ny":28,"refTime":"2025-04-20T21:00:00:Z","depth":"2","parameterNumber":2,"parameterNumberName":"U-component_of_CURRENTS"},"data":[0,0,0,0,0,0,0,0,0,0,0,0,0,0,0,0,0,0,0,0,0,0,0,0,0,0,0,0,0,0,0,0,0,0,0,0,0,0,0,0,0,0,0,0,0,0,0,0,0,0,0,0,0,0,0,0,0,0,0.2202,0.2203,0,0.2235,0.2234,0.2234,0.2233,0.2233,0.2233,0.2234,0.2274,0.2275,0.2275,0,0,0,0,0,0,0,0,0,0,0,0,0,0.218,0.2179,0.2202,0.2203,0.2204,0.2235,0.2234,0.2234,0.2232,0.2233,0.2234,0.2234,0.2274,0.2275,0.2275,0,0,0,0,0,0,0,0,0,0,0,0,0,0.2189,0.2179,0.2201,0.2215,0.2217,0.2235,0.2234,0.2234,0.2232,0.2233,0.2234,0.2234,0.2274,0.2274,0.2275,0.2267,0,0,0.2278,0.2279,0,0,0,0,0,0,0,0,0.2188,0.2188,0.2212,0.2214,0.2217,0.2239,0.2242,0.2249,0.2232,0.2216,0.2234,0.2235,0.2269,0.227,0.2261,0.2269,0.2271,0.2278,0.2279,0.2279,0.228,0,0,0,0,0,0,0,0.2188,0.2188,0.2204,0.2213,0.2216,0.2235,0.2235,0.2243,0.223,0.2217,0.222,0.2239,0.2269,0.226,0.2262,0.2271,0.2278,0.2279,0.228,0.228,0.2359,0.2361,0,0,0,0,0,0,0.2201,0.2186,0.2204,0.2206,0.2216,0.2235,0.2235,0.2223,0.223,0.2235,0.2239,0.2239,0.2258,0.2261,0.2263,0.234,0.2279,0.228,0.2281,0.2358,0.236,0.2361,0,0,0,0,0,0,0.22,0.2201,0.2202,0.2208,0.221,0.2235,0.2221,0.2223,0.2249,0.2248,0.2251,0.2268,0.2258,0.2262,0.2294,0.2339,0.2281,0.2282,0.2356,0.2358,0.236,0.2439,0,0,0,0,0,0,0.2198,0.2199,0.2208,0.2207,0.2211,0.225,0.2222,0.2224,0.2263,0.2265,0.2274,0.2276,0.2259,0.2293,0.2295,0.2339,0.2282,0.2354,0.2357,0.236,0.2435,0.2444,0.2452,0,0,0,0,0,0.2197,0.2233,0.2207,0.2211,0.2216,0.2254,0.2257,0.227,0.2265,0.2291,0.2285,0.2278,0.2313,0.2295,0.2297,0.2342,0.2353,0.2356,0.236,0.2431,0.2442,0.2452,0,0,0,0,0,0,0.2229,0.2236,0.2209,0.2241,0.2255,0.2258,0.2298,0.2293,0.2306,0.2306,0.2293,0.2295,0.2344,0.233,0.231,0.2373,0.2334,0.2338,0.2388,0.2398,0.2407,0.2404,0.2283,0,0,0,0,0,0.2235,0.2263,0.2258,0.2286,0.2295,0.2292,0.2314,0.2312,0.2323,0.233,0.2327,0.2331,0.2353,0.2366,0.2374,0.2406,0.2408,0.2437,0.2446,0.2453,0.2453,0.2506,0.252,0.2373,0.2373,0.2373,0,0,0.2259,0.2267,0.2282,0.2296,0.2301,0.2315,0.2306,0.2347,0.2358,0.2332,0.2355,0.2365,0.2369,0.2404,0.2425,0.2403,0.2497,0.2458,0.2464,0.2459,0.2511,0.2526,0.2538,0.2375,0.2375,0.2374,0,0,0.2309,0.2317,0.2341,0.2367,0.2388,0.2372,0.2393,0.2395,0.2404,0.2426,0.2413,0.2438,0.2467,0.2464,0.2473,0.2532,0.2545,0.256,0.2599,0.2651,0.2664,0.2675,0.2698,0.2711,0.256,0.256,0.256,0,0.235,0.2344,0.2361,0.2392,0.241,0.24,0.2413,0.2428,0.2438,0.2461,0.245,0.251,0.2488,0.2551,0.2554,0.2551,0.2588,0.256,0.2664,0.2675,0.2685,0.2705,0.2718,0.2564,0.2564,0.2563,0.2563,0,0.2372,0.2405,0.2437,0.2442,0.2461,0.2495,0.2493,0.2511,0.2511,0.2532,0.2608,0.2591,0.2638,0.2634,0.2602,0.2678,0.2683,0.2674,0.2638,0.2705,0.2722,0.2734,0.257,0.2569,0.2567,0.2566,0,0,0.2394,0.2441,0.2457,0.2471,0.2491,0.251,0.2529,0.2554,0.2615,0.2635,0.2706,0.2719,0.2754,0.2762,0.2755,0.2765,0.283,0.2751,0.2752,0.2775,0.2958,0.2858,0.2861,0.2869,0.2872,0.2874,0.2942,0,0.2406,0.2447,0.2465,0.2515,0.2524,0.2546,0.2575,0.261,0.266,0.2735,0.2759,0.2833,0.2803,0.2836,0.2858,0.2837,0.2868,0.2812,0.2888,0.2889,0.2795,0.2873,0.2645,0.2679,0.2953,0.2955,0.2956,0,0.24,0.2427,0.2454,0.2533,0.2544,0.2583,0.2639,0.268,0.2787,0.2833,0.2936,0.2983,0.3018,0.297,0.3026,0.3012,0.2997,0.2968,0.2971,0.2856,0.2812,0.2657,0.269,0.2976,0.2974,0.2973,0.2972,0,0.2348,0.2435,0.2443,0.2475,0.2544,0.2584,0.2625,0.2722,0.2768,0.292,0.2991,0.3094,0.3114,0.3154,0.3101,0.3095,0.3134,0.312,0.3027,0.302,0.2821,0.2791,0.317,0.317,0.317,0.317,0.317,0,0.2334,0.238,0.2444,0.2473,0.2516,0.2585,0.267,0.2745,0.2855,0.2937,0.3069,0.3131,0.3162,0.3191,0.3165,0.3129,0.3209,0.3046,0.304,0.2841,0.2813,0.306,0.3046,0.3172,0.3172,0.3171,0.3171,0,0.2302,0.2331,0.2388,0.2476,0.2495,0.2545,0.2648,0.2735,0.2863,0.2967,0.3009,0.3139,0.3193,0.3219,0.322,0.3177,0.3157,0.312,0.2863,0.2825,0.2998,0.2988,0.3062,0.3059,0.3057,0.3055,0.3054,0,0.2291,0.2301,0.2382,0.239,0.2447,0.2515,0.2561,0.2692,0.2781,0.2958,0.3002,0.31,0.312,0.3124,0.307,0.3048,0.3106,0.2811,0.2738,0.3005,0.2993,0.2986,0.2979,0.2512,0.2506,0.2501,0.2497,0,0.2262,0.2297,0.2341,0.236,0.2412,0.2448,0.2546,0.2567,0.273,0.2795,0.2864,0.2885,0.2959,0.2805,0.2796,0.2755,0.2803,0.2712,0.3084,0.2566,0.249,0.2476,0.2487,0.2454,0.2458,0.2462,0.2464,0.2466,0.2247,0.2267,0.2295,0.2328,0.2362,0.2355,0.2338,0.2435,0.2451,0.2505,0.2614,0.2586,0.2626,0.2486,0.2405,0.2373,0.2568,0.245,0.2464,0.2484,0.2399,0.2322,0.2239,0.2241,0.2244,0.2246,0.2248,0,0.2165,0.2195,0.2232,0.2227,0.2217,0.2274,0.2294,0.2242,0.2185,0.2268,0.2259,0.2069,0.1982,0.2057,0.194,0.1936,0.1915,0.1859,0.1813,0.1858,0.1898,0.1782,0.1458,0.1456,0.1453,0.1451,0,0,0.2112,0.2094,0.2123,0.2052,0.2061,0.1987,0.1954,0.1895,0.1905,0.1787,0.1755,0.1883,0.1986,0.1689,0.166,0.1536,0.1681,0.1477,0.2117,0.2108,0.2143,0.2251,0.2125,0,0,0,0,0]},{"header":{"parameterUnit":"m.s-1","parameterCategory":2,"la1":30.2991,"la2":30.254,"lo1":-89.0895,"lo2":-89.0444,"dy":0.0017,"dx":0.0017,"nx":28,"ny":28,"refTime":"2025-04-20T21:00:00:Z","depth":"2","parameterNumber":3,"parameterNumberName":"V-component_of_CURRENTS"},"data":[0,0,0,0,0,0,0,0,0,0,0,0,0,0,0,0,0,0,0,0,0,0,0,0,0,0,0,0,0,0,0,0,0,0,0,0,0,0,0,0,0,0,0,0,0,0,0,0,0,0,0,0,0,0,0,0,0,0,0.0022,0.0021,0,0.0015,0.0015,0.0015,-0.0001,-0.0002,-0.0002,-0.0003,-0.0043,-0.0043,-0.0044,0,0,0,0,0,0,0,0,0,0,0,0,0,-0.0006,-0.0005,0.0022,0.0021,0.0021,0.0015,0.0015,0.0015,-0.0001,-0.0002,-0.0002,-0.0003,-0.0043,-0.0043,-0.0044,0,0,0,0,0,0,0,0,0,0,0,0,0,0.0,-0.0005,0.0022,0.0011,0.001,0.0015,0.0015,0.0015,-0.0001,-0.0002,-0.0002,-0.0003,-0.0042,-0.0043,-0.0044,-0.0034,0,0,-0.0047,-0.0047,0,0,0,0,0,0,0,0,-0.0,0.0001,0.0013,0.0012,0.001,0.0006,-0.0009,-0.0004,-0.0001,0.0005,-0.0003,-0.0004,-0.003,-0.0032,-0.0029,-0.0036,-0.0038,-0.0047,-0.0047,-0.0048,-0.0048,0,0,0,0,0,0,0,-0.0,0.0001,0.0021,0.0013,0.0011,-0.0002,-0.0002,-0.0008,-0.0008,0.0004,0.0003,-0.0,-0.0031,-0.0028,-0.003,-0.0039,-0.0047,-0.0048,-0.0048,-0.0049,-0.0056,-0.0056,0,0,0,0,0,0,-0.0001,0.0001,0.0021,0.002,0.0001,-0.0001,-0.0001,0.0009,-0.0007,-0.001,0.0,-0.0001,-0.0026,-0.0029,-0.0032,-0.0027,-0.0048,-0.0049,-0.0049,-0.0056,-0.0056,-0.0055,0,0,0,0,0,0,-0.0001,0.0002,0.0021,0.0008,0.001,-0.0,0.0011,0.001,0.0007,-0.001,-0.0014,-0.0002,-0.0027,-0.003,-0.0037,-0.0029,-0.0049,-0.005,-0.0057,-0.0056,-0.0056,-0.0016,0,0,0,0,0,0,-0.0001,0.0002,0.0009,0.0009,0.001,0.0026,0.0012,0.001,0.0005,0.0003,-0.0013,-0.0017,-0.0028,-0.0036,-0.0038,-0.0031,-0.0051,-0.0057,-0.0056,-0.0056,-0.0017,-0.0014,-0.0011,0,0,0,0,0,-0.0002,0.0014,0.001,0.0012,0.0021,0.0026,0.0026,0.0017,0.0006,0.001,-0.0002,-0.0017,-0.0034,-0.0036,-0.0039,-0.0032,-0.0057,-0.0057,-0.0056,-0.0019,-0.0014,-0.0011,0,0,0,0,0,0,0.0007,0.0013,0.0009,0.0026,0.0025,0.0022,0.0026,0.0017,0.0012,0.0008,-0.001,-0.0015,-0.0018,-0.003,-0.0033,-0.0032,-0.0049,-0.0048,-0.0019,-0.0016,-0.0012,0.0005,-0.0051,0,0,0,0,0,0.0012,0.0024,0.0024,0.0036,0.0039,0.0031,0.0031,0.0024,0.0019,0.0016,0.0006,-0.0007,-0.0015,-0.002,-0.0028,-0.0026,-0.0039,-0.0025,-0.0021,-0.0018,-0.0006,-0.0017,-0.0013,-0.0053,-0.0053,-0.0053,0,0,0.0015,0.0022,0.0027,0.0038,0.0038,0.0054,0.003,0.0033,0.0046,0.0012,0.0027,0.0005,-0.0012,-0.0009,-0.0012,-0.002,-0.0017,-0.0018,-0.0015,-0.0004,-0.0016,-0.0012,-0.0008,-0.0052,-0.0053,-0.0053,0,0,0.0036,0.0039,0.0058,0.006,0.0061,0.0065,0.0065,0.0064,0.0064,0.0069,0.0048,0.0039,0.0024,0.0022,0.0015,0.0034,0.0001,0.0018,0.005,0.004,0.0043,0.0046,0.0025,0.0026,0.002,0.002,0.002,0,0.004,0.0068,0.0062,0.0081,0.0093,0.0073,0.01,0.0098,0.0094,0.0097,0.0078,0.0062,0.0047,0.0054,0.0056,0.0044,0.0021,0.0037,0.0045,0.0047,0.005,0.0028,0.0028,0.0022,0.0022,0.0022,0.0021,0,0.008,0.0094,0.0105,0.013,0.0144,0.0157,0.0162,0.0169,0.0162,0.0152,0.0149,0.0127,0.0113,0.0106,0.0085,0.0092,0.0063,0.005,0.0037,0.0056,0.0031,0.0031,0.0025,0.0024,0.0024,0.0023,0,0,0.0115,0.0131,0.0136,0.0152,0.0172,0.0189,0.0219,0.0238,0.0251,0.0229,0.0252,0.0222,0.0184,0.0176,0.0145,0.0139,0.013,0.0098,0.0096,0.0081,0.0089,0.0065,0.0061,0.0107,0.0107,0.0107,0.0062,0,0.0151,0.0196,0.02,0.0244,0.0271,0.027,0.0303,0.0311,0.0306,0.0318,0.0284,0.0284,0.0216,0.0211,0.0186,0.0155,0.0131,0.0143,0.007,0.0068,0.0047,0.0062,0.008,0.0041,0.0061,0.0061,0.0061,0,0.0199,0.0225,0.0274,0.0309,0.0323,0.0342,0.0393,0.0415,0.0416,0.041,0.0383,0.0349,0.0332,0.0282,0.021,0.0212,0.0148,0.0118,0.0115,0.0082,0.0044,0.0026,0.0039,0.006,0.006,0.006,0.006,0,0.0246,0.028,0.0325,0.0334,0.0369,0.0392,0.0416,0.0433,0.0472,0.0466,0.049,0.0427,0.0428,0.034,0.0242,0.0225,0.0173,0.0143,0.0057,0.0053,0.0053,0.005,0.0091,0.0092,0.0092,0.0092,0.0092,0,0.0295,0.0324,0.0338,0.0358,0.0419,0.0428,0.0485,0.0499,0.0537,0.0595,0.0526,0.0562,0.0443,0.039,0.0277,0.0164,0.0185,0.007,0.0046,0.0065,0.0064,0.0069,0.0068,0.009,0.009,0.0091,0.0091,0,0.0334,0.0343,0.0386,0.0418,0.0438,0.0478,0.0548,0.059,0.0609,0.0694,0.0706,0.0677,0.0603,0.0469,0.0351,0.0228,0.0121,0.007,0.0093,0.0073,-0.0003,-0.0003,-0.0024,-0.0025,-0.0026,-0.0026,-0.0027,0,0.0356,0.038,0.0428,0.0466,0.0476,0.0535,0.0588,0.0628,0.0691,0.0771,0.083,0.0786,0.076,0.0556,0.0354,0.0152,0.012,0.0026,0.0001,0.0009,-0.0012,-0.001,-0.0008,0.0009,0.0009,0.0009,0.0008,0,0.0401,0.0407,0.0444,0.0517,0.0571,0.0645,0.0722,0.0794,0.0865,0.0926,0.1004,0.0992,0.081,0.0614,0.0332,0.0193,0.0058,0.0014,0.0031,0.0035,0.0036,0.0016,0.0018,0.0006,0.0006,0.0007,0.0007,0.0007,0.0428,0.046,0.0507,0.0573,0.0647,0.0748,0.0815,0.091,0.1019,0.112,0.1115,0.1089,0.0883,0.0521,0.0288,0.0042,0.0053,-0.0046,-0.0043,-0.0041,-0.0029,-0.003,-0.0071,-0.0071,-0.0071,-0.0071,-0.0071,0,0.0466,0.0502,0.0568,0.0654,0.0734,0.0765,0.0906,0.0974,0.1099,0.1173,0.1208,0.1005,0.0791,0.055,0.0192,-0.0027,-0.0042,-0.0104,-0.007,-0.0066,-0.0063,-0.0051,-0.0099,-0.01,-0.0101,-0.0101,0,0,0.0494,0.0555,0.0581,0.071,0.077,0.0882,0.0959,0.1063,0.1142,0.1192,0.1178,0.1139,0.0867,0.0599,0.0311,0.0107,0.0065,0.0059,0.0106,0.0185,0.019,-0.0004,0.002,0,0,0,0,0]}],[{"header":{"parameterUnit":"m.s-1","parameterCategory":2,"la1":30.2991,"la2":30.254,"lo1":-89.0895,"lo2":-89.0444,"dy":0.0017,"dx":0.0017,"nx":28,"ny":28,"refTime":"2025-04-20T21:00:00:Z","depth":"4","parameterNumber":2,"parameterNumberName":"U-component_of_CURRENTS"},"data":[0,0,0,0,0,0,0,0,0,0,0,0,0,0,0,0,0,0,0,0,0,0,0,0,0,0,0,0,0,0,0,0,0,0,0,0,0,0,0,0,0,0,0,0,0,0,0,0,0,0,0,0,0,0,0,0,0,0,0.112,0.1121,0,0.1197,0.1198,0.1199,0.1267,0.1268,0.1268,0.1269,0.1359,0.1361,0.1362,0,0,0,0,0,0,0,0,0,0,0,0,0,0.1073,0.1073,0.112,0.1121,0.1122,0.1197,0.1198,0.1199,0.1267,0.1268,0.1269,0.127,0.1359,0.1361,0.1363,0,0,0,0,0,0,0,0,0,0,0,0,0,0.1115,0.1073,0.112,0.1165,0.117,0.1197,0.1198,0.1199,0.1266,0.1268,0.1269,0.127,0.1358,0.136,0.1363,0.1353,0,0,0.137,0.1371,0,0,0,0,0,0,0,0,0.1113,0.1117,0.1157,0.1162,0.1168,0.1224,0.1214,0.1251,0.1266,0.1229,0.1269,0.1271,0.1314,0.1321,0.1332,0.1358,0.1361,0.1371,0.1372,0.1373,0.1374,0,0,0,0,0,0,0,0.111,0.1114,0.115,0.1158,0.1165,0.1196,0.1203,0.1222,0.1264,0.1233,0.1238,0.1247,0.1317,0.1329,0.1334,0.1363,0.137,0.1373,0.1374,0.1375,0.1485,0.1487,0,0,0,0,0,0,0.1097,0.1111,0.1148,0.1153,0.1143,0.1195,0.1203,0.1204,0.1264,0.1274,0.1245,0.1249,0.1324,0.1331,0.1338,0.1413,0.1373,0.1375,0.1377,0.1484,0.1486,0.1487,0,0,0,0,0,0,0.1096,0.1099,0.1145,0.1135,0.1143,0.1194,0.1195,0.1205,0.1248,0.1273,0.1284,0.1282,0.1326,0.1334,0.1383,0.1414,0.1376,0.1379,0.1482,0.1484,0.1486,0.151,0,0,0,0,0,0,0.1094,0.1098,0.111,0.1133,0.1143,0.118,0.1195,0.1206,0.1249,0.1256,0.1307,0.1315,0.1327,0.1379,0.1385,0.1417,0.1381,0.148,0.1483,0.1486,0.1508,0.1513,0.1518,0,0,0,0,0,0.1092,0.1097,0.1109,0.1115,0.1151,0.1181,0.119,0.123,0.125,0.1273,0.1309,0.1315,0.1401,0.1382,0.1389,0.1422,0.1479,0.1482,0.1486,0.1506,0.1512,0.1518,0,0,0,0,0,0,0.1085,0.1105,0.1119,0.1132,0.1164,0.1194,0.1219,0.1244,0.129,0.1303,0.1328,0.1339,0.1395,0.1404,0.1382,0.1463,0.1443,0.1448,0.1456,0.1463,0.1467,0.1457,0.1383,0,0,0,0,0,0.1085,0.1102,0.1123,0.1142,0.1153,0.1191,0.1214,0.124,0.1275,0.1299,0.1334,0.1373,0.1408,0.1432,0.1462,0.15,0.1519,0.1529,0.1534,0.1538,0.1535,0.1602,0.1612,0.1498,0.1498,0.1498,0,0,0.1086,0.1105,0.1113,0.1144,0.117,0.1186,0.1209,0.1248,0.1276,0.1299,0.1357,0.1392,0.1423,0.1471,0.1497,0.1486,0.1581,0.1542,0.1545,0.154,0.1606,0.1617,0.1627,0.15,0.15,0.1499,0,0,0.1094,0.1113,0.1126,0.1146,0.1188,0.1208,0.1223,0.1265,0.1301,0.1351,0.138,0.1432,0.1485,0.1515,0.1534,0.1583,0.1605,0.1603,0.162,0.1685,0.1695,0.1703,0.174,0.1752,0.1605,0.1605,0.1605,0,0.1101,0.1113,0.1138,0.1153,0.1173,0.1216,0.1233,0.1267,0.1327,0.1357,0.1376,0.1475,0.1503,0.156,0.1582,0.1594,0.1629,0.1592,0.1691,0.17,0.1709,0.1744,0.1757,0.1607,0.1607,0.1606,0.1606,0,0.1108,0.1123,0.1133,0.1163,0.119,0.1215,0.1252,0.1296,0.1345,0.138,0.1462,0.1509,0.157,0.1592,0.1602,0.168,0.1685,0.1689,0.1672,0.1722,0.1756,0.1768,0.1609,0.1608,0.1608,0.1608,0,0,0.1107,0.1132,0.114,0.1149,0.1197,0.1216,0.1265,0.1318,0.1361,0.1429,0.1497,0.156,0.1601,0.1626,0.166,0.1713,0.1802,0.1731,0.1734,0.176,0.1941,0.1802,0.1802,0.1837,0.1839,0.1841,0.1939,0,0.1112,0.1127,0.115,0.1175,0.1179,0.1229,0.1272,0.1328,0.1392,0.1467,0.1531,0.1609,0.161,0.1664,0.1715,0.1796,0.1839,0.1775,0.1895,0.1897,0.1763,0.1813,0.1849,0.1948,0.1951,0.1953,0.1955,0,0.1104,0.112,0.1138,0.1173,0.1183,0.1216,0.1296,0.1344,0.1443,0.1497,0.1578,0.1639,0.1737,0.1735,0.1873,0.1841,0.1887,0.1932,0.1937,0.1804,0.1782,0.1891,0.1978,0.1976,0.1974,0.1973,0.1971,0,0.1071,0.1106,0.1124,0.1133,0.1185,0.1223,0.1273,0.1362,0.1418,0.1537,0.1597,0.1704,0.1795,0.1871,0.1957,0.194,0.21,0.2086,0.1992,0.1983,0.2068,0.2058,0.2166,0.2166,0.2166,0.2166,0.2166,0,0.104,0.1055,0.1115,0.1116,0.1164,0.1215,0.1288,0.1347,0.1458,0.1528,0.1623,0.1698,0.1841,0.1942,0.1991,0.2029,0.213,0.1997,0.2002,0.2075,0.2064,0.2077,0.2065,0.2169,0.2169,0.2168,0.2167,0,0.0975,0.1018,0.1034,0.1103,0.114,0.1176,0.1291,0.1335,0.145,0.1553,0.1602,0.1744,0.1865,0.1967,0.2112,0.2067,0.2121,0.2102,0.217,0.2178,0.1949,0.1938,0.2005,0.2001,0.1997,0.1994,0.1992,0,0.0937,0.0939,0.1012,0.1043,0.108,0.1155,0.1206,0.1325,0.1378,0.1561,0.16,0.1761,0.1841,0.1925,0.2034,0.2104,0.2079,0.208,0.2,0.1935,0.1935,0.1929,0.1922,0.1987,0.1986,0.1985,0.1984,0,0.0869,0.0905,0.0918,0.0969,0.1029,0.108,0.1169,0.1207,0.1351,0.1469,0.1563,0.1637,0.1761,0.1855,0.192,0.1963,0.2067,0.2044,0.205,0.1975,0.1914,0.1916,0.1914,0.1972,0.1974,0.1975,0.1976,0,0.0836,0.0823,0.0854,0.0892,0.0957,0.0993,0.1048,0.1124,0.1202,0.1404,0.1439,0.1603,0.1747,0.1784,0.185,0.1876,0.1846,0.1779,0.1798,0.1813,0.1704,0.1596,0.1565,0,0,0,0,0,0.0799,0.0781,0.0786,0.0818,0.0864,0.0915,0.1016,0.1077,0.1233,0.1258,0.1346,0.1449,0.1549,0.1634,0.1626,0.1767,0.185,0.1748,0.1781,0.1906,0.192,0.1809,0,0,0,0,0,0,0.0784,0.0787,0.0755,0.0749,0.0764,0.0814,0.0882,0.098,0.1004,0.1169,0.1232,0.1353,0.1473,0.1545,0.1598,0.1624,0.1613,0.1851,0.1847,0.1899,0.1911,0.1922,0.1813,0,0,0,0,0]},{"header":{"parameterUnit":"m.s-1","parameterCategory":2,"la1":30.2991,"la2":30.254,"lo1":-89.0895,"lo2":-89.0444,"dy":0.0017,"dx":0.0017,"nx":28,"ny":28,"refTime":"2025-04-20T21:00:00:Z","depth":"4","parameterNumber":3,"parameterNumberName":"V-component_of_CURRENTS"},"data":[0,0,0,0,0,0,0,0,0,0,0,0,0,0,0,0,0,0,0,0,0,0,0,0,0,0,0,0,0,0,0,0,0,0,0,0,0,0,0,0,0,0,0,0,0,0,0,0,0,0,0,0,0,0,0,0,0,0,0.0129,0.0129,0,0.0122,0.0122,0.0122,0.0097,0.0096,0.0095,0.0095,0.0061,0.0061,0.0061,0,0,0,0,0,0,0,0,0,0,0,0,0,0.0096,0.0097,0.0129,0.0129,0.0128,0.0122,0.0122,0.0122,0.0097,0.0096,0.0095,0.0094,0.0062,0.0061,0.0061,0,0,0,0,0,0,0,0,0,0,0,0,0,0.0102,0.0097,0.0129,0.0115,0.0113,0.0122,0.0122,0.0122,0.0097,0.0096,0.0095,0.0094,0.0062,0.0061,0.0061,0.0077,0,0,0.0059,0.0059,0,0,0,0,0,0,0,0,0.0102,0.0104,0.0117,0.0116,0.0114,0.0109,0.0099,0.0106,0.0097,0.0103,0.0095,0.0094,0.0075,0.0074,0.0076,0.0076,0.0074,0.0059,0.0059,0.0059,0.0059,0,0,0,0,0,0,0,0.0102,0.0104,0.0127,0.0117,0.0115,0.0101,0.0101,0.01,0.0095,0.0103,0.0101,0.01,0.0074,0.0076,0.0075,0.0074,0.0059,0.0059,0.0059,0.0059,0.0077,0.0078,0,0,0,0,0,0,0.0104,0.0104,0.0127,0.0126,0.0105,0.0102,0.0102,0.0112,0.0095,0.0092,0.0101,0.0099,0.0077,0.0075,0.0073,0.0095,0.0059,0.0059,0.0058,0.0076,0.0077,0.0078,0,0,0,0,0,0,0.0104,0.0107,0.0127,0.0113,0.0115,0.0104,0.0115,0.0112,0.011,0.0094,0.009,0.0101,0.0076,0.0074,0.0076,0.0093,0.0058,0.0058,0.0076,0.0077,0.0078,0.0135,0,0,0,0,0,0,0.0103,0.0107,0.0116,0.0114,0.0116,0.0135,0.0115,0.0113,0.0111,0.0108,0.0093,0.0089,0.0076,0.0077,0.0076,0.0092,0.0058,0.0075,0.0076,0.0077,0.0133,0.0138,0.0143,0,0,0,0,0,0.0102,0.012,0.0117,0.012,0.0129,0.0136,0.0135,0.0124,0.0112,0.0117,0.0108,0.0089,0.0085,0.0078,0.0076,0.0092,0.0074,0.0076,0.0077,0.013,0.0137,0.0143,0,0,0,0,0,0,0.0113,0.0119,0.0116,0.0135,0.0135,0.0131,0.0137,0.0127,0.0125,0.0121,0.0102,0.0098,0.0105,0.0092,0.0084,0.0101,0.0075,0.0077,0.0116,0.0123,0.0128,0.0136,0.0057,0,0,0,0,0,0.012,0.0131,0.0134,0.0147,0.0153,0.0146,0.0147,0.0138,0.0134,0.0132,0.0124,0.0115,0.0113,0.0112,0.0107,0.012,0.0087,0.0127,0.0133,0.0137,0.0143,0.0108,0.0111,0.0084,0.0084,0.0084,0,0,0.0127,0.0131,0.0137,0.0149,0.0151,0.017,0.0144,0.015,0.0164,0.013,0.0149,0.0134,0.012,0.0134,0.0136,0.0123,0.0127,0.0139,0.0144,0.0147,0.011,0.0112,0.0115,0.0085,0.0085,0.0085,0,0,0.0146,0.0153,0.017,0.0178,0.0183,0.0183,0.0186,0.0187,0.0188,0.0202,0.0181,0.0179,0.0179,0.0174,0.0172,0.0205,0.0156,0.0198,0.0235,0.0201,0.0203,0.0204,0.0161,0.0158,0.0202,0.0202,0.0202,0,0.0154,0.018,0.0175,0.0198,0.0212,0.0194,0.0222,0.0224,0.0223,0.0229,0.0215,0.0214,0.0202,0.0216,0.0227,0.0219,0.0182,0.0212,0.0208,0.0208,0.0208,0.0164,0.016,0.0205,0.0205,0.0204,0.0204,0,0.0189,0.0212,0.0226,0.0252,0.0265,0.0284,0.0291,0.03,0.0297,0.0293,0.0301,0.0286,0.0281,0.0279,0.0266,0.0266,0.0234,0.0217,0.0191,0.0214,0.0167,0.0161,0.0209,0.0208,0.0207,0.0207,0,0,0.0209,0.0244,0.0252,0.0276,0.0298,0.0314,0.0343,0.0364,0.0377,0.0371,0.0385,0.0386,0.0359,0.0354,0.0331,0.0308,0.0279,0.0266,0.0262,0.0223,0.0189,0.0178,0.017,0.0253,0.0252,0.0252,0.0153,0,0.0243,0.0295,0.0305,0.0359,0.039,0.0394,0.0424,0.0434,0.0432,0.0438,0.0417,0.0418,0.0393,0.0386,0.036,0.0297,0.0268,0.0307,0.0173,0.0169,0.0155,0.0165,0.0251,0.0149,0.0147,0.0146,0.0146,0,0.0281,0.0311,0.037,0.0418,0.0433,0.0462,0.0501,0.0522,0.052,0.0515,0.0502,0.0472,0.0448,0.0418,0.0325,0.0345,0.0276,0.0224,0.0219,0.0186,0.0148,0.0121,0.0135,0.0136,0.0137,0.0138,0.0138,0,0.0305,0.0361,0.0409,0.0428,0.0476,0.0506,0.0531,0.0545,0.0567,0.0556,0.0555,0.0512,0.0488,0.0405,0.0305,0.0306,0.0187,0.0172,0.0097,0.0094,0.0107,0.0107,0.0105,0.0105,0.0105,0.0106,0.0106,0,0.0343,0.0383,0.0425,0.0456,0.0514,0.0535,0.0587,0.0601,0.0615,0.0634,0.0592,0.0584,0.0481,0.0403,0.0308,0.0185,0.0185,0.0104,0.0072,0.0133,0.0137,0.0102,0.0104,0.0102,0.0103,0.0103,0.0104,0,0.0364,0.0391,0.0449,0.0506,0.0529,0.0569,0.0634,0.0663,0.0668,0.0688,0.0686,0.0629,0.0525,0.0414,0.0269,0.0191,0.0075,0.0031,0.01,0.0072,0.0001,0.0006,-0.0064,-0.0065,-0.0066,-0.0067,-0.0068,0,0.0378,0.0407,0.0484,0.0518,0.0549,0.061,0.0653,0.0689,0.0713,0.0713,0.0718,0.0637,0.0581,0.0368,0.0248,0.0062,0.004,-0.0029,-0.0002,0.001,-0.0015,-0.0008,-0.0002,-0.0069,-0.007,-0.007,-0.007,0,0.0396,0.0422,0.0469,0.0544,0.06,0.0661,0.0719,0.0743,0.0771,0.0778,0.0735,0.0638,0.0518,0.0364,0.0219,0.009,0.0014,-0.0039,-0.0038,-0.0014,0.0003,-0.0019,-0.0012,-0.0073,-0.0073,-0.0073,-0.0072,0,0.0405,0.0433,0.0492,0.0558,0.0627,0.0684,0.0723,0.0749,0.0776,0.0772,0.0754,0.0637,0.0571,0.0376,0.0245,0.0116,0.0085,0.0041,0.0037,0.0039,0.0105,0.0143,0.0084,0,0,0,0,0,0.0405,0.0435,0.0498,0.0567,0.0638,0.0677,0.075,0.0779,0.0806,0.078,0.0769,0.0661,0.047,0.0389,0.0257,0.0222,0.0059,0.0063,0.0006,-0.0092,-0.0088,-0.0029,0,0,0,0,0,0,0.0404,0.0457,0.0489,0.056,0.0603,0.0679,0.0726,0.0752,0.0737,0.0744,0.0646,0.0609,0.0426,0.0535,0.0244,0.0208,0.015,-0.0021,-0.0024,-0.0094,-0.009,-0.0087,-0.0025,0,0,0,0,0]}]]